    C/2009 Y1 (Catalina)
Epoch 2011 Feb. 8.0 TT = JDT 2455600.5  
T 2011 Jan. 28.90122 TT                                 Nakano
q   2.5206720            (2000.0)            P               Q
z  +0.0026415      Peri.  127.38731     +0.65139011     +0.68694785
 +/-0.0000178      Node   160.27745     -0.28547515     -0.17151648
e   0.9933418      Incl.  107.31652     +0.70298994     -0.70617615
From 157 observations 2009 Dec. 17-2010 Mar. 16, mean residual 0".47.
   (1/a)org.= +0.002672, (1/a)fut.= +0.002981 (+/-0.000018), Q= 6.
   The comet has passed 1.22 AU from Saturn on 2008 Mar. 8 UT.

NAKANO
         **** Don't distribute anyone except personal use only ****
           (C) Copyright 2010 Orbit.Astro.Assoc./ComputingSection
write mail from CFAD0::NAKANO on 2010-03-22 08:10:35(JST).


◎C/2009 Y1の軌道と予報位置

 ・・・と言っていたら,この彗星も2008年3月8日に土星まで1.22 AUまで
接近していました.

    C/2009 Y1 (Catalina)
Epoch 2011 Feb. 8.0 TT = JDT 2455600.5  
T 2011 Jan. 28.92521 TT                                 Nakano
q   2.5202760            (2000.0)            P               Q
z  +0.0027076      Peri.  127.39926     +0.65153032     +0.68680579
 +/-0.0000897      Node   160.27630     -0.28553268     -0.17146216
e   0.9931761      Incl.  107.31577     +0.70283663     -0.70632750
From 96 observations 2009 Dec. 17-2010 Feb. 7, mean residual 0".49.
   (1/a)org.= +0.002738, (1/a)fut.= +0.003048 (+/-0.000090), Q= 5.
   The comet has passed 1.22 AU from Saturn on 2008 Mar. 8 and will
   pass 3.26 AU from Jupiter on 2011 May 11.
 
Date/        TT  R.A.(2000) Decl.     Delta   r     Daily motion  Mag.  Moon Age
              h    h  m       。  ,                      ,  / PA 。  m1      。
2010 Feb. 15 18  11 54.65  +63 16.5   3.688  4.333    21.2 / 334  17.7  118  .03
          16 18  11 53.23  +63 35.5   3.683  4.325    21.2 / 333  17.7  113  .06
          17 18  11 51.75  +63 54.3   3.679  4.318    21.1 / 332  17.7  108  .12
          18 18  11 50.22  +64 12.9   3.674  4.310    21.0 / 331  17.7  101  .19
          19 18  11 48.64  +64 31.2   3.671  4.303    21.0 / 330  17.7   94  .27
          20 18  11 46.99  +64 49.3   3.667  4.295    20.9 / 329  17.7   87  .37
          21 18  11 45.29  +65 07.2   3.664  4.288    20.8 / 328  17.6   80  .47
          22 18  11 43.54  +65 24.9   3.661  4.280    20.7 / 327  17.6   73  .58
          23 18  11 41.72  +65 42.2   3.658  4.273    20.6 / 326  17.6   67  .69
          24 18  11 39.85  +65 59.3   3.656  4.265    20.5 / 325  17.6   62  .79
          25 18  11 37.92  +66 16.1   3.653  4.258    20.4 / 324  17.6   58  .87
          26 18  11 35.93  +66 32.6   3.652  4.250    20.2 / 323  17.6   57  .94
          27 18  11 33.89  +66 48.7   3.650  4.243    20.1 / 322  17.6   59  .99
          28 18  11 31.78  +67 04.6   3.649  4.235    20.0 / 321  17.6   64 1.00
     Mar.  1 18  11 29.62  +67 20.1   3.647  4.228    19.8 / 320  17.6   70  .98
           2 18  11 27.41  +67 35.3   3.647  4.220    19.7 / 319  17.6   77  .94
           3 18  11 25.14  +67 50.2   3.646  4.213    19.5 / 318  17.6   85  .87
           4 18  11 22.81  +68 04.6   3.646  4.205    19.4 / 317  17.5   93  .79
           5 18  11 20.43  +68 18.8   3.645  4.198    19.2 / 316  17.5  100  .69
           6 18  11 18.00  +68 32.5   3.646  4.190    19.0 / 315  17.5  107  .59
           7 18  11 15.51  +68 45.8   3.646  4.183    18.9 / 314  17.5  113  .49
           8 18  11 12.98  +68 58.8   3.647  4.175    18.7 / 313  17.5  118  .39
           9 18  11 10.40  +69 11.4   3.647  4.168    18.5 / 311  17.5  121  .30
          10 18  11 07.77  +69 23.5   3.648  4.160    18.3 / 310  17.5  123  .22
          11 18  11 05.10  +69 35.2   3.650  4.153    18.1 / 309  17.5  123  .15
          12 18  11 02.38  +69 46.6   3.651  4.146    17.9 / 308  17.5  121  .09
          13 18  10 59.63  +69 57.5   3.653  4.138    17.7 / 307  17.5  118  .04
          14 18  10 56.84  +70 07.9   3.655  4.131    17.5 / 305  17.5  113  .01
          15 18  10 54.02  +70 18.0   3.657  4.123    17.3 / 304  17.5  108  .00
          16 18  10 51.16  +70 27.6   3.659  4.116    17.1 / 303  17.5  102  .01
          17 18  10 48.28  +70 36.8   3.661  4.108    16.9 / 302  17.5   95  .04
          18 18  10 45.37  +70 45.5   3.664  4.101    16.6 / 300  17.4   88  .08
          19 18  10 42.45  +70 53.8   3.667  4.093    16.4 / 299  17.4   80  .14
          20 18  10 39.50  +71 01.7   3.670  4.086    16.2 / 298  17.4   74  .22
          21 18  10 36.54  +71 09.1   3.673  4.079    16.0 / 296  17.4   67  .32
          22 18  10 33.57  +71 16.1   3.676  4.071    15.7 / 295  17.4   62  .42
          23 18  10 30.60  +71 22.7   3.679  4.064    15.5 / 294  17.4   58  .53
          24 18  10 27.62  +71 28.9   3.683  4.056    15.3 / 292  17.4   56  .64
          25 18  10 24.65  +71 34.6   3.686  4.049    15.0 / 291  17.4   57  .75
          26 18  10 21.67  +71 39.9   3.690  4.042    14.8 / 290  17.4   60  .84
          27 18  10 18.71  +71 44.8   3.694  4.034    14.6 / 288  17.4   65  .92
          28 18  10 15.76  +71 49.4   3.698  4.027    14.3 / 287  17.4   72  .97
          29 18  10 12.82  +71 53.5   3.702  4.019    14.1 / 286  17.4   80 1.00
          30 18  10 09.90  +71 57.2   3.706  4.012    13.8 / 284  17.4   88  .99
          31 18  10 07.01  +72 00.5   3.711  4.005    13.6 / 283  17.4   97  .96
     Apr.  1 18  10 04.14  +72 03.5   3.715  3.997    13.4 / 282  17.4  105  .91
NAKANO
         **** Don't distribute anyone except personal use only ****
           (C) Copyright 2010 Orbit.Astro.Assoc./ComputingSection
write mail from CFAD0::NAKANO on 2010-02-11 06:13:


    C/2009 Y1 (Catalina)
T 2011 Jan. 27.73596 TT                                 Nakano
q   2.5264325            (2000.0)            P               Q
                   Peri.  127.12127     +0.64836511     +0.69020965
                   Node   160.32822     -0.28359237     -0.17270014
e   1.0            Incl.  107.35890     +0.70653949     -0.70269858
From 70 observations 2009 Dec. 17-2010 Jan. 25.

NAKANO
         **** Don't distribute anyone except personal use only ****
           (C) Copyright 2010 Orbit.Astro.Assoc./ComputingSection
write mail from CFAD0::NAKANO on 2010-01-27 08:20:36(JST).
 

C/2009 Y1の軌道と予報位置

 彗星は,年末には14等級まで明るくなるでしょう.

    C/2009 Y1 (Catalina)
T 2011 Jan. 28.28362 TT                                 Nakano
q   2.5515072            (2000.0)            P               Q
                   Peri.  126.58085     +0.64155994     +0.69622410
                   Node   160.29165     -0.28315305     -0.17516179
e   1.0            Incl.  107.29638     +0.71289915     -0.69612524
From 49 observations 2009 Dec. 17-29.
 
Date/        TT  R.A.(2000) Decl.     Delta   r     Daily motion  Mag.  Moon Age
              h    h  m       。  ,                      ,  / PA 。  m1      。
2010 Jan.  1 18  12 15.36  +48 31.4   4.221  4.683    17.6 /   6  18.3   60  .99
           2 18  12 15.54  +48 49.0   4.203  4.676    17.8 /   5  18.3   53  .94
           3 18  12 15.71  +49 06.7   4.186  4.668    17.9 /   5  18.3   50  .88
           4 18  12 15.86  +49 24.5   4.169  4.660    18.1 /   4  18.3   50  .79
           5 18  12 15.98  +49 42.6   4.152  4.653    18.3 /   3  18.3   52  .68
           6 18  12 16.09  +50 00.8   4.136  4.645    18.4 /   2  18.3   58  .58
           7 18  12 16.17  +50 19.2   4.119  4.638    18.6 /   2  18.2   64  .47
           8 18  12 16.23  +50 37.8   4.103  4.630    18.7 /   1  18.2   72  .36
           9 18  12 16.27  +50 56.5   4.087  4.623    18.9 /   0  18.2   80  .27
          10 18  12 16.28  +51 15.3   4.071  4.615    19.0 / 360  18.2   88  .18
          11 18  12 16.27  +51 34.4   4.056  4.607    19.2 / 359  18.2   96  .11
          12 18  12 16.24  +51 53.5   4.041  4.600    19.3 / 358  18.2  104  .06
          13 18  12 16.18  +52 12.8   4.026  4.592    19.4 / 358  18.1  111  .02
          14 18  12 16.09  +52 32.2   4.011  4.585    19.6 / 357  18.1  117  .00
          15 18  12 15.98  +52 51.8   3.997  4.577    19.7 / 356  18.1  122  .00
          16 18  12 15.84  +53 11.5   3.983  4.570    19.8 / 356  18.1  126  .02
          17 18  12 15.67  +53 31.2   3.969  4.562    20.0 / 355  18.1  127  .05
          18 18  12 15.48  +53 51.1   3.956  4.554    20.1 / 354  18.1  127  .10
          19 18  12 15.25  +54 11.1   3.942  4.547    20.2 / 354  18.1  125  .17
          20 18  12 14.99  +54 31.2   3.930  4.539    20.3 / 353  18.0  121  .24
          21 18  12 14.70  +54 51.3   3.917  4.532    20.4 / 352  18.0  116  .33
          22 18  12 14.38  +55 11.6   3.904  4.524    20.5 / 352  18.0  109  .43
          23 18  12 14.03  +55 31.9   3.892  4.517    20.6 / 351  18.0  102  .53
          24 18  12 13.64  +55 52.2   3.881  4.509    20.7 / 350  18.0   94  .63
          25 18  12 13.22  +56 12.6   3.869  4.502    20.8 / 350  18.0   86  .74
          26 18  12 12.76  +56 33.1   3.858  4.494    20.9 / 349  18.0   77  .83
          27 18  12 12.27  +56 53.6   3.847  4.487    21.0 / 348  17.9   69  .91
          28 18  12 11.74  +57 14.1   3.837  4.479    21.0 / 347  17.9   63  .97
          29 18  12 11.17  +57 34.6   3.826  4.471    21.1 / 347  17.9   58 1.00
          30 18  12 10.56  +57 55.1   3.816  4.464    21.2 / 346  17.9   55 1.00
          31 18  12 09.92  +58 15.6   3.807  4.456    21.2 / 345  17.9   56  .97
     Feb.  1 18  12 09.23  +58 36.1   3.797  4.449    21.3 / 345  17.9   59  .91
NAKANO
         **** Don't distribute anyone except personal use only ****
           (C) Copyright 2010 Orbit.Astro.Assoc./ComputingSection
write mail from CFAD0::NAKANO on 2010-01-09 06:55:05(JST).
 


戻ります。